Palm Springs International Airport

Airport
ICAO code: 
KPSP
Summary
ICAO Region: 
NAM
Territory: 
Location: 
Palm Springs, California,
Coordinates: 
Aerial View: 
33° 49' 45.646" N, 116° 30' 26.559" W
Airport LOS: 
Parallel Runway Operation
Metar
Observation
KPSP 241553Z 32005KT 10SM CLR 12/00 A3007 RMK AO2 SLP184 T01170000 $
Station
Palm Springs, Palm Springs Regional Airport
Date/Time
2022-01-24 15:53:00
Wind direction
320°
Wind speed
05 kts
Lowest cloud amount
n/a
Temperature
11.7°C
Dew point
0°C
Humidity
44%
Weather condition
n/a

Description

Palm Springs International Airport is a public airport located two miles (3 km) east of the central business district of Palm Springs, California, serving the Inland Empire Metropolitan Area of Southern California.

Climatology

Desert climate (Köppen climate classification Bwh) with extremely hot summers and warm winters

Runways

Designator Length Width Surface Rops
13L/31R 1509 23 ASP Yes/Yes
13R/31L 3048 46 ASP Yes/Yes
Airport map: 
Aerial View: 

SKYbrary Partners:

Safety knowledge contributed by: